This demonstration page uses our WeatherBlox Daily Observations layout. Learn more.

Left ArrowRight Arrow

Hourly Observations for November 22, 2021

Temp ( °F °C ) Dew Point ( °F °C ) Humidity (%) Winds ( mph kmh ) Pressure ( in mb ) Visibility ( mi km ) Precip ( " mm )
12:15 am 00:15 Cloudy with Light Rain 45 7 43 6 93 93 SSW 6 9 29.98 1015 10 16 N/A
12:35 am 00:35 Cloudy with Light Rain 45 7 43 6 93 93 SSW 5 7 29.98 1015 10 16 N/A
12:55 am 00:55 Cloudy with Light Rain 45 7 43 6 93 93 SSW 6 9 29.96 1015 10 16 N/A
1:15 am 01:15 Cloudy with Rain 45 7 43 6 93 93 S 5 7 29.95 1014 10 16 N/A
1:35 am 01:35 Cloudy with Light Rain 43 6 43 6 100 100 N N/A 29.95 1014 10 16 N/A
1:55 am 01:55 Cloudy 43 6 43 6 100 100 N N/A 29.95 1014 10 16 N/A
2:15 am 02:15 Cloudy 43 6 43 6 100 100 N N/A 29.95 1014 10 16 N/A
2:35 am 02:35 Cloudy 43 6 43 6 100 100 N N/A 29.95 1014 10 16 N/A
2:55 am 02:55 Cloudy with Light Rain 43 6 43 6 100 100 N N/A 29.95 1014 10 16 N/A
3:15 am 03:15 Cloudy with Drizzle 43 6 43 6 100 100 NNE 5 7 29.95 1014 10 16 N/A
3:35 am 03:35 Cloudy with Light Rain 43 6 43 6 100 100 N 3 6 29.95 1014 10 16 N/A
3:55 am 03:55 Cloudy with Light Rain 43 6 41 5 93 93 N 3 6 29.95 1014 10 16 N/A
4:15 am 04:15 Cloudy with Light Rain 43 6 41 5 93 93 N N/A 29.94 1014 10 16 N/A
4:35 am 04:35 Cloudy with Light Rain 43 6 41 5 93 93 N N/A 29.94 1014 10 16 N/A
4:55 am 04:55 Cloudy 43 6 43 6 100 100 N N/A 29.94 1014 10 16 N/A
5:15 am 05:15 Cloudy with Light Rain 43 6 43 6 100 100 N N/A 29.94 1014 10 16 N/A
5:35 am 05:35 Cloudy with Light Rain 43 6 43 6 100 100 SSW 3 6 29.93 1014 10 16 N/A
5:55 am 05:55 Cloudy 43 6 43 6 100 100 N N/A 29.93 1014 10 16 N/A
6:15 am 06:15 Cloudy 43 6 43 6 100 100 W 3 6 29.93 1014 10 16 N/A
6:35 am 06:35 Cloudy 43 6 43 6 100 100 N N/A 29.94 1014 10 16 N/A
6:55 am 06:55 Partly Cloudy 43 6 43 6 100 100 N N/A 29.94 1014 10 16 N/A
7:15 am 07:15 Sunny 43 6 43 6 100 100 N N/A 29.93 1014 10 16 N/A
7:35 am 07:35 Sunny 45 7 43 6 93 93 N N/A 29.94 1014 10 16 N/A
7:55 am 07:55 Sunny 45 7 43 6 93 93 N N/A 29.94 1014 10 16 N/A
8:15 am 08:15 Sunny 45 7 43 6 93 93 NNW 12 19 29.94 1014 10 16 N/A
8:35 am 08:35 Sunny 46 8 41 5 82 82 NW 9 15 29.94 1014 10 16 N/A
8:55 am 08:55 Sunny 46 8 43 6 87 87 NW 7 11 29.94 1014 10 16 N/A
9:15 am 09:15 Sunny 46 8 41 5 82 82 NNW 6 9 29.94 1014 10 16 N/A
9:35 am 09:35 Sunny 48 9 41 5 76 76 NNW 9 15 29.94 1014 10 16 N/A
9:55 am 09:55 Sunny 48 9 41 5 76 76 NNW 8 13 29.94 1014 10 16 N/A
10:15 am 10:15 Sunny 50 10 41 5 71 71 NW 8 13 29.94 1014 10 16 N/A
10:35 am 10:35 Sunny 50 10 37 3 62 62 NW 13 20 29.93 1013 10 16 N/A
10:55 am 10:55 Sunny 50 10 37 3 62 62 NW 8 13 29.94 1014 10 16 N/A
11:15 am 11:15 Sunny 50 10 37 3 62 62 WNW 9 15 29.93 1013 10 16 N/A
11:35 am 11:35 Partly Cloudy 50 10 37 3 62 62 N N/A 29.93 1013 10 16 N/A
11:55 am 11:55 Cloudy 52 11 37 3 58 58 NNW 12 19 29.91 1013 10 16 N/A
12:15 pm 12:15 Cloudy 50 10 39 4 67 67 N 17 28 29.92 1013 10 16 N/A
12:35 pm 12:35 Cloudy 50 10 39 4 67 67 N 16 26 29.92 1013 10 16 N/A
12:55 pm 12:55 Partly Cloudy 50 10 37 3 62 62 NNW 21 33 29.92 1013 10 16 N/A
1:15 pm 13:15 Sunny 50 10 37 3 62 62 NW 17 28 29.92 1013 10 16 N/A
1:35 pm 13:35 Sunny 50 10 34 1 54 54 NW 17 28 29.92 1013 10 16 N/A
1:55 pm 13:55 Sunny 50 10 30 -1 47 47 NW 14 22 29.93 1013 10 16 N/A
2:15 pm 14:15 Sunny 50 10 30 -1 47 47 NW 16 26 29.94 1014 10 16 N/A
2:35 pm 14:35 Sunny 50 10 30 -1 47 47 NW 16 26 29.93 1013 10 16 N/A
2:55 pm 14:55 Sunny 50 10 27 -3 40 40 NNW 17 28 29.94 1014 10 16 N/A
3:15 pm 15:15 Sunny 48 9 27 -3 43 43 NNW 14 22 29.94 1014 10 16 N/A
3:35 pm 15:35 Sunny 46 8 21 -6 37 37 NNW 20 31 29.96 1015 10 16 N/A
3:55 pm 15:55 Sunny 45 7 23 -5 42 42 NW 15 24 29.97 1015 10 16 N/A
4:15 pm 16:15 Sunny 45 7 23 -5 42 42 NW 17 28 29.98 1015 10 16 N/A
4:35 pm 16:35 Sunny 43 6 25 -4 49 49 NNW 9 15 29.99 1016 10 16 N/A
4:55 pm 16:55 Clear 43 6 25 -4 49 49 NNW 12 19 29.99 1016 10 16 N/A
5:15 pm 17:15 Clear 43 6 27 -3 53 53 N 8 13 30.00 1016 10 16 N/A
5:35 pm 17:35 Clear 41 5 27 -3 57 57 NNW 14 22 30.00 1016 10 16 N/A
5:55 pm 17:55 Clear 41 5 25 -4 53 53 N 10 17 30.01 1016 10 16 N/A
6:15 pm 18:15 Clear 41 5 25 -4 53 53 N 13 20 30.02 1017 10 16 N/A
6:35 pm 18:35 Clear 41 5 25 -4 53 53 NNW 14 22 30.03 1017 10 16 N/A
6:55 pm 18:55 Clear 41 5 25 -4 53 53 NNW 10 17 30.03 1017 10 16 N/A
7:15 pm 19:15 Clear 41 5 23 -5 49 49 N 12 19 30.04 1017 10 16 N/A
7:35 pm 19:35 Clear 39 4 23 -5 52 52 N 14 22 30.05 1017 10 16 N/A
7:55 pm 19:55 Clear 39 4 23 -5 52 52 N 12 19 30.07 1018 10 16 N/A
8:15 pm 20:15 Clear 37 3 23 -5 56 56 N 10 17 30.07 1018 10 16 N/A
8:35 pm 20:35 Clear 37 3 23 -5 56 56 N 10 17 30.07 1018 10 16 N/A
8:55 pm 20:55 Clear 37 3 23 -5 56 56 NNW 13 20 30.08 1019 10 16 N/A
9:15 pm 21:15 Clear 37 3 23 -5 56 56 N 8 13 30.08 1019 10 16 N/A
9:35 pm 21:35 Clear 36 2 23 -5 60 60 N 8 13 30.09 1019 10 16 N/A
9:55 pm 21:55 Clear 36 2 23 -5 60 60 N 8 13 30.09 1019 10 16 N/A
10:15 pm 22:15 Clear 36 2 23 -5 60 60 N 6 9 30.09 1019 10 16 N/A
10:35 pm 22:35 Clear 34 1 23 -5 65 65 N 5 7 30.09 1019 10 16 N/A
10:55 pm 22:55 Clear 34 1 23 -5 65 65 N 3 6 30.09 1019 10 16 N/A
11:15 pm 23:15 Clear 34 1 23 -5 65 65 N 5 7 30.09 1019 10 16 N/A
11:35 pm 23:35 Clear 34 1 23 -5 65 65 N 7 11 30.09 1019 10 16 N/A
11:55 pm 23:55 Clear 34 1 21 -6 60 60 N 3 6 30.09 1019 10 16 N/A

Powered by AerisWeather